Tracking 32412 objects as of 7-Dec-2025
HD Live streaming from Space Station
objects crossing your sky now

THORAD DELTA 1 DEB

Track THORAD DELTA 1 DEB now!
10-day predictions


NORAD ID: 8555
Int'l Code: 1974-089CS
Perigee: 1,400.2 km
Apogee: 1,492.8 km
Inclination: 101.4 °
Period: 114.6 minutes
Semi major axis: 7817 km
RCS: 0.0537 m2 (small)
Launch date: November 15, 1974
Source: United States (US)
Launch site: AIR FORCE WESTERN TEST RANGE (AFWTR)

Note: This is SATELLITE DEBRIS
Your satellite tracking list
Your tracking list is empty




NASA's NSSDC Master Catalog

Two Line Element Set (TLE):
1 08555U 74089CS  25340.59108865  .00001119  00000-0  70091-2 0  9998
2 08555 101.4024  98.8134 0059205  54.7848  13.5469 12.56035680329241
Source of the keplerian elements: AFSPC